sat.trackr.live / text

‹ back to catalog

STARLINK-30847

NORAD 58239 · 2023-171K

PAYLOAD ACTIVE UNKNOWN

§ Identity

Operator
Country
US
Launch date
2023-11-08
Launch site
AFETR
Launch vehicle
Mass (kg)
RCS (m²)

Purposes: comms

External: N2YO · Heavens-Above · Gunter

§ Orbital elements

Epoch: 2026-05-25T04:48:49.483008Z

Period
94.27 min
Inclination
42.9993°
Eccentricity
0.0001745
Mean motion
15.27576510 rev/d
Perigee alt
481.9 km
Apogee alt
484.3 km
Semi-major
6,861.2 km
B*
3.4056e-4
RAAN
213.3305°
Arg perigee
269.0147°
Mean anomaly
91.0505°
Rev number
14,143

§ Raw data

STARLINK-308471 58239U 23171K   26145.20057272  .00009120  00000+0  34056-3 0  99962 58239  42.9993 213.3305 0001745 269.0147  91.0505 15.27576510141430

JSON: /api/v1/satellites/58239 · /tle

For live sub-satellite position, see the globe view (requires WebGL).

§ Visibility from observer

Set your observer location to see the next 7 days of passes ≥ 10°. The values pass through the URL so the page stays shareable.

No JS? Fill the form by hand. The geolocation button needs JavaScript.